GW5624 Weather Reports


Display with metric or nautical units.
time (UTC)temp
F
wind
direction
speed
MPH
gust
MPH
rain 1hr
in
rain 24hr
in
rain mn
in
humidity
%
barometer
mb
20260508073021 32 278 0.0 1.0 0.00 0.00 0.00 88 1014.4
20260508071525 32 278 0.0 1.0 0.00 0.00 0.00 87 1014.4
20260508070022 32 217 0.0 1.0 0.00 0.00 0.00 87 1014.4
20260508064520 33 162 0.0 2.0 0.00 0.00 0.00 88 1014.6
20260508063022 33 135 0.0 0.0 0.00 0.00 0.00 88 1014.5
20260508061523 33 134 0.0 0.0 0.00 0.00 0.00 88 1014.4
20260508060018 33 122 0.0 1.0 0.00 0.00 0.00 86 1014.2
20260508054521 33 122 0.0 0.0 0.00 0.00 0.00 86 1014.1
20260508053026 34 123 0.0 1.0 0.00 0.00 0.00 84 1014.0
20260508051525 34 131 0.0 1.0 0.00 0.00 0.00 84 1014.0
20260508050028 35 62 0.0 2.0 0.00 0.00 0.00 83 1014.3
20260508044524 36 25 0.0 2.0 0.00 0.00 0.00 82 1014.2
20260508043025 36 178 0.0 1.0 0.00 0.00 0.00 81 1014.1
20260508041523 37 56 0.0 1.0 0.00 0.00 0.00 80 1014.0
20260508040024 39 135 0.0 2.0 0.00 0.00 0.00 75 1013.9
20260508034526 41 237 0.0 2.0 0.00 0.00 0.00 71 1013.7
20260508033022 41 335 1.0 4.0 0.00 0.00 0.00 70 1013.6
20260508031525 40 37 0.0 3.0 0.00 0.00 0.00 75 1013.4
20260508030008 41 358 1.0 6.0 0.00 0.00 0.00 76 1013.3
20260508024512 40 289 0.0 2.0 0.00 0.00 0.00 79 1013.4
20260508023017 41 21 0.0 2.0 0.00 0.00 0.00 76 1013.1
20260508021529 42 15 0.0 5.0 0.00 0.00 0.00 74 1013.0
20260508020024 43 96 0.0 4.0 0.00 0.00 0.00 74 1012.9
20260508014508 43 155 0.0 3.0 0.00 0.00 0.00 73 1012.7
20260508013022 44 210 0.0 1.0 0.00 0.00 0.00 72 1012.5
20260508011519 45 311 0.0 1.0 0.00 0.00 0.00 68 1012.2
20260508010022 48 2 0.0 7.0 0.00 0.00 0.00 63 1012.3
20260508004535 48 310 0.0 3.0 0.00 0.00 0.00 64 1012.1
20260508003007 49 284 2.0 5.0 0.00 0.00 0.00 58 1011.8
20260508001516 50 296 0.0 2.0 0.00 0.01 0.00 62 1011.7
20260508000017 52 358 2.0 5.0 0.00 0.04 0.00 55 1011.6
20260507234504 53 12 0.0 3.0 0.00 0.04 0.00 54 1011.4
20260507233006 54 343 3.0 9.0 0.00 0.04 0.00 52 1011.5
20260507231509 55 291 2.0 10.0 0.00 0.04 0.00 52 1011.2
20260507230013 55 327 2.0 13.0 0.00 0.04 0.00 51 1011.1
20260507224502 55 297 3.0 9.0 0.00 0.04 0.00 52 1011.0
20260507223002 57 335 5.0 9.0 0.00 0.04 0.00 49 1010.8
20260507221513 57 257 4.0 14.0 0.00 0.04 0.00 48 1010.7
20260507220013 58 312 6.0 13.0 0.00 0.04 0.00 49 1010.8
20260507214516 57 306 4.0 14.0 0.00 0.04 0.00 52 1010.3
20260507213003 57 333 7.0 12.0 0.00 0.04 0.00 51 1010.1
20260507211504 58 349 7.0 14.0 0.00 0.04 0.00 51 1010.0
20260507210021 57 278 6.0 12.0 0.00 0.04 0.00 51 1009.8
20260507204513 60 30 4.0 15.0 0.00 0.04 0.00 51 1009.7
20260507203018 59 298 3.0 13.0 0.00 0.04 0.00 55 1009.6
20260507201508 58 332 7.0 17.0 0.00 0.04 0.00 50 1009.8
20260507200003 58 28 6.0 14.0 0.00 0.04 0.00 51 1010.1
20260507194508 57 330 4.0 11.0 0.00 0.04 0.00 52 1010.2
20260507193015 58 295 2.0 11.0 0.00 0.04 0.00 55 1010.1
20260507191518 56 276 5.0 13.0 0.00 0.05 0.00 52 1010.6
20260507190004 56 30 6.0 16.0 0.00 0.06 0.00 54 1010.7
20260507184515 57 36 6.0 12.0 0.00 0.06 0.00 56 1010.9
20260507183011 57 241 2.0 11.0 0.00 0.06 0.00 59 1010.7
20260507181515 56 350 3.0 8.0 0.00 0.06 0.00 60 1010.5
20260507180017 56 326 3.0 7.0 0.00 0.06 0.00 61 1010.5
20260507174502 56 274 3.0 11.0 0.00 0.06 0.00 60 1010.7
20260507173006 56 58 1.0 8.0 0.00 0.06 0.00 60 1010.7
20260507171514 56 319 4.0 13.0 0.00 0.06 0.00 57 1010.8
20260507170016 56 326 3.0 9.0 0.00 0.06 0.00 58 1010.9
20260507164520 56 150 1.0 7.0 0.00 0.06 0.00 57 1010.9
20260507163006 56 214 1.0 5.0 0.00 0.06 0.00 58 1011.1
20260507161507 56 289 3.0 6.0 0.00 0.06 0.00 56 1011.3
20260507160016 56 25 1.0 5.0 0.00 0.06 0.00 57 1011.5
20260507154529 55 11 2.0 8.0 0.00 0.06 0.00 58 1011.5
20260507153035 54 288 3.0 9.0 0.00 0.06 0.00 58 1011.6
20260507151505 53 81 1.0 4.0 0.00 0.06 0.00 62 1011.6
20260507150011 53 88 1.0 6.0 0.00 0.06 0.00 62 1011.7
20260507144516 53 317 3.0 7.0 0.00 0.06 0.00 62 1011.8
20260507143025 52 321 2.0 5.0 0.00 0.06 0.00 62 1012.0
20260507141523 52 359 2.0 5.0 0.00 0.06 0.00 65 1011.9
20260507140009 51 11 3.0 6.0 0.00 0.06 0.00 64 1012.3
20260507134510 50 318 4.0 7.0 0.00 0.06 0.00 65 1012.4
20260507133019 49 17 3.0 6.0 0.00 0.07 0.00 68 1012.4
20260507131528 48 334 2.0 10.0 0.00 0.08 0.00 69 1012.5
20260507130036 48 353 5.0 12.0 0.00 0.08 0.00 68 1012.8
20260507124511 49 20 0.0 4.0 0.00 0.08 0.00 71 1012.7
20260507123011 49 21 1.0 3.0 0.00 0.13 0.00 73 1012.5
20260507121516 48 24 0.0 5.0 0.00 0.15 0.00 75 1012.4
20260507120023 48 175 1.0 5.0 0.00 0.16 0.00 75 1012.3
20260507114523 48 142 0.0 6.0 0.00 0.20 0.00 76 1012.2
20260507113011 48 127 1.0 6.0 0.00 0.20 0.00 78 1012.1
20260507111516 48 300 3.0 9.0 0.00 0.22 0.00 78 1011.7
20260507110023 49 65 2.0 7.0 0.00 0.24 0.00 79 1011.6
20260507104527 49 298 5.0 10.0 0.00 0.25 0.00 78 1011.6
20260507103030 49 309 3.0 6.0 0.00 0.28 0.00 80 1011.3
20260507101528 49 290 4.0 8.0 0.00 0.30 0.00 81 1011.3
20260507100026 50 267 3.0 8.0 0.00 0.31 0.00 82 1011.1
20260507094521 50 284 4.0 6.0 0.00 0.31 0.00 82 1011.1
20260507093026 50 290 2.0 4.0 0.00 0.31 0.00 82 1011.6
20260507091529 50 303 0.0 3.0 0.00 0.31 0.00 82 1011.2
20260507090028 51 282 1.0 2.0 0.00 0.32 0.00 81 1011.3
20260507084519 51 76 1.0 4.0 0.00 0.37 0.00 81 1011.4
20260507083022 51 351 0.0 2.0 0.00 0.38 0.00 80 1011.4
20260507081525 51 277 3.0 6.0 0.00 0.38 0.00 80 1011.3
20260507080010 51 6 1.0 3.0 0.00 0.38 0.00 81 1011.2
20260507074515 51 287 1.0 5.0 0.00 0.38 0.00 81 1011.1